Location: �perlecques
(50.8057°N, 2.1521°E)
Time: 21:14:56
(UTC+00:00)

X-37B - Visible Passes

Search period start: 04 December 2022 00:00
Search period end: 14 December 2022 00:00
Orbit: 277 x 277 km, 45.0° (Epoch: 01 November)

Date Brightness Start Highest point End Pass type
(mag) Time Alt. Az. Time Alt. Az. Time Alt. Az.
09 Dec 2.7 17:33:18 10° S 17:34:03 11° SSE 17:34:03 11° SSE visible
10 Dec 2.4 17:33:05 10° SSW 17:34:34 14° SSE 17:34:42 14° SSE visible
11 Dec 2.1 17:33:18 10° SW 17:35:05 18° S 17:35:21 17° SSE visible
12 Dec 2.0 17:33:43 10° SW 17:35:38 20° S 17:36:00 19° SSE visible
13 Dec 1.9 17:34:13 10° SW 17:36:11 21° S 17:36:40 20° SSE visible
